This demonstration page uses our WeatherBlox Daily Observations layout. Learn more.

Left ArrowRight Arrow

39.51506, -84.39828

Hourly Observations for October 27, 2015

Temp ( °F °C ) Dew Point ( °F °C ) Humidity (%) Winds ( mph kmh ) Pressure ( in mb ) Visibility ( mi km ) Precip ( " mm )
12:15 am 00:15 Cloudy 55 12.5 33 0.5 44 44 NE 6 9 30.33 1027 10 16 N/A
12:35 am 00:35 Cloudy 55 12.5 33 0.5 44 44 NE 7 11 30.30 1026 10 16 N/A
12:55 am 00:55 Cloudy 55 12.5 33 0.8 45 45 NE 6 9 30.30 1026 10 16 N/A
1:15 am 01:15 Cloudy 55 12.5 33 0.5 44 44 ENE 9 15 30.30 1026 10 16 N/A
1:35 am 01:35 Partly Cloudy 55 12.5 33 0.7 45 45 ENE 7 11 30.30 1026 10 16 N/A
1:55 am 01:55 Clear 55 12.5 35 1.5 47 47 ENE 6 9 30.27 1025 10 16 N/A
2:15 am 02:15 Clear 55 12.5 34 1.1 46 46 ENE 6 9 30.27 1025 10 16 N/A
2:35 am 02:35 Mostly Cloudy 55 12.5 35 1.4 47 47 ENE 6 9 30.27 1025 10 16 N/A
2:55 am 02:55 Cloudy 55 12.5 35 1.4 47 47 NE 6 9 30.27 1025 10 16 N/A
3:15 am 03:15 Cloudy 55 12.5 35 1.5 47 47 NE 6 9 30.27 1025 10 16 N/A
3:35 am 03:35 Cloudy 55 12.5 35 1.4 47 47 NE 6 9 30.27 1025 10 16 N/A
3:55 am 03:55 Cloudy 55 12.5 35 1.5 47 47 NE 6 9 30.27 1025 10 16 N/A
4:15 am 04:15 Cloudy 55 12.5 35 1.7 48 48 NE 6 9 30.27 1025 10 16 N/A
4:35 am 04:35 Cloudy 55 12.5 35 1.5 47 47 NE 6 9 30.27 1025 10 16 N/A
4:55 am 04:55 Cloudy 55 12.5 35 1.6 48 48 NE 8 13 30.27 1025 10 16 N/A
5:15 am 05:15 Cloudy 55 12.5 35 1.6 48 48 ENE 7 11 30.27 1025 10 16 N/A
5:35 am 05:35 Cloudy 55 12.5 38 3.2 53 53 ENE 8 13 30.27 1025 10 16 N/A
5:55 am 05:55 Cloudy 55 12.5 38 3.1 53 53 ENE 7 11 30.27 1025 10 16 N/A
6:15 am 06:15 Cloudy 55 12.5 38 3.4 54 54 E 6 9 30.27 1025 10 16 N/A
6:35 am 06:35 Cloudy 55 12.5 39 3.7 55 55 ENE 8 13 30.27 1025 10 16 N/A
6:55 am 06:55 Cloudy 55 12.5 39 3.9 56 56 E 6 9 30.27 1025 10 16 N/A
7:15 am 07:15 Cloudy 55 12.5 39 3.8 56 56 E 7 11 30.27 1025 10 16 N/A
7:35 am 07:35 Cloudy with Drizzle 52 11.3 39 3.9 61 61 E 7 11 30.27 1025 10 16 N/A
7:55 am 07:55 Cloudy with Drizzle 52 11 41 5.1 67 67 E 6 9 30.27 1025 10 16 N/A
8:15 am 08:15 Cloudy with Light Snow 51 10.3 43 5.9 74 74 ESE 5 7 30.27 1025 10 16 N/A
8:35 am 08:35 Cloudy with Snow 49 9.6 42 5.7 77 77 E 5 7 30.27 1025 5 8 N/A
8:55 am 08:55 Cloudy with Light Snow 49 9.6 44 6.5 81 81 E 3 6 30.27 1025 5 8 N/A
9:15 am 09:15 Cloudy with Drizzle 49 9.7 45 7 83 83 ENE 3 6 30.27 1025 7 11 N/A
9:35 am 09:35 Cloudy with Drizzle 51 10.3 46 7.7 84 84 ENE 5 7 30.27 1025 10 16 N/A
9:55 am 09:55 Cloudy with Drizzle 52 11 47 8.5 85 85 ENE 6 9 30.27 1025 10 16 N/A
10:15 am 10:15 Cloudy with Drizzle 52 11 47 8.6 85 85 ENE 5 7 30.27 1025 10 16 N/A
10:35 am 10:35 Cloudy with Drizzle 53 11.6 49 9.2 85 85 ENE 5 7 30.27 1025 10 16 N/A
10:55 am 10:55 Cloudy with Drizzle 54 12.3 50 9.9 85 85 ENE 7 11 30.27 1025 10 16 N/A
11:15 am 11:15 Cloudy with Drizzle 55 12.5 50 10.1 85 85 ENE 6 9 30.27 1025 10 16 N/A
11:35 am 11:35 Cloudy with Drizzle 55 12.5 50 10 85 85 ENE 6 9 30.27 1025 10 16 N/A
11:55 am 11:55 Cloudy 55 12.5 50 10.1 85 85 E 6 9 30.24 1024 10 16 N/A
12:15 pm 12:15 Cloudy with Drizzle 55 12.5 50 10 85 85 E 10 17 30.24 1024 10 16 N/A
12:35 pm 12:35 Cloudy with Light Rain 55 12.5 50 10 85 85 E 10 17 30.24 1024 10 16 N/A
12:55 pm 12:55 Cloudy with Light Rain 55 12.5 50 10 85 85 E 8 13 30.24 1024 10 16 N/A
1:15 pm 13:15 Cloudy with Drizzle 55 12.5 50 10 85 85 E 9 15 30.24 1024 10 16 N/A
1:35 pm 13:35 Cloudy with Light Rain 55 12.5 50 10 85 85 NE 9 15 30.21 1023 10 16 N/A
1:55 pm 13:55 Cloudy with Light Snow 55 12.5 50 10 85 85 ENE 10 17 30.18 1022 10 16 N/A
2:15 pm 14:15 Cloudy with Light Rain 55 12.5 50 10 85 85 E 9 15 30.18 1022 10 16 N/A
2:35 pm 14:35 Cloudy with Drizzle 55 12.5 50 10 85 85 ENE 8 13 30.18 1022 10 16 N/A
2:55 pm 14:55 Cloudy 55 12.5 50 10 85 85 E 9 15 30.15 1021 10 16 N/A
3:15 pm 15:15 Cloudy 55 12.5 50 10 85 85 E 9 15 30.15 1021 10 16 N/A
3:35 pm 15:35 Cloudy with Light Rain 55 12.5 50 10 85 85 E 14 22 30.12 1020 10 16 N/A
3:55 pm 15:55 Cloudy with Drizzle 55 12.5 50 10 85 85 E 10 17 30.12 1020 10 16 N/A
4:15 pm 16:15 Cloudy with Rain 55 12.5 50 10.1 85 85 E 10 17 30.12 1020 10 16 N/A
4:35 pm 16:35 Cloudy with Rain 55 12.5 50 10 85 85 E 9 15 30.12 1020 10 16 N/A
4:55 pm 16:55 Cloudy with Drizzle 55 12.5 50 10 85 85 E 10 17 30.09 1019 10 16 N/A
5:15 pm 17:15 Cloudy with Light Snow 55 12.5 50 10 85 85 E 7 11 30.09 1019 10 16 N/A
5:35 pm 17:35 Cloudy with Light Rain 55 12.5 50 10.1 85 85 E 9 15 30.09 1019 7 11 N/A
5:55 pm 17:55 Cloudy with Rain 55 12.5 50 10.2 86 86 E 8 13 30.09 1019 10 16 N/A
6:15 pm 18:15 Cloudy with Light Rain 55 12.5 50 10.2 86 86 E 8 13 30.09 1019 7 11 N/A
6:35 pm 18:35 Cloudy with Light Rain 55 12.5 50 10.2 86 86 E 8 13 30.09 1019 10 16 N/A
6:55 pm 18:55 Cloudy with Light Rain 55 12.5 50 10.2 86 86 E 7 11 30.06 1018 7 11 N/A
7:15 pm 19:15 Cloudy with Light Snow 55 12.5 50 10.2 86 86 E 7 11 30.06 1018 5 8 N/A
7:35 pm 19:35 Cloudy with Light Rain 55 12.5 50 10.2 86 86 E 10 17 30.06 1018 10 16 N/A
7:55 pm 19:55 Cloudy with Light Rain 55 12.5 51 10.3 87 87 E 8 13 30.03 1017 10 16 N/A
8:15 pm 20:15 Cloudy with Rain 55 12.5 50 10.2 86 86 E 8 13 30.06 1018 7 11 N/A
8:35 pm 20:35 Cloudy with Heavy Snow 55 12.5 50 10.2 86 86 E 6 9 30.03 1017 3 5 N/A
8:55 pm 20:55 Cloudy with Light Snow 55 12.5 51 10.3 87 87 E 10 17 30.03 1017 5 8 N/A
9:15 pm 21:15 Cloudy with Light Snow 55 12.5 50 10.2 86 86 E 8 13 30.00 1016 5 8 N/A
9:35 pm 21:35 Cloudy with Rain 55 12.5 50 10.2 86 86 E 13 20 30.00 1016 10 16 N/A
9:55 pm 21:55 Cloudy with Rain 55 12.5 50 10.2 86 86 E 13 20 30.00 1016 10 16 N/A
10:15 pm 22:15 Cloudy with Rain 55 12.5 50 10.2 86 86 ESE 14 22 30.00 1016 7 11 N/A
10:35 pm 22:35 Cloudy with Rain 55 12.5 51 10.3 87 87 E 15 24 29.97 1015 5 8 N/A
10:55 pm 22:55 Cloudy with Snow 55 12.5 51 10.3 87 87 E 9 15 29.94 1014 3 5 N/A
11:15 pm 23:15 Cloudy with Rain 55 12.5 50 10.2 86 86 ESE 9 15 29.94 1014 7 11 N/A
11:35 pm 23:35 Cloudy with Rain 55 12.5 50 10.2 86 86 E 10 17 29.91 1013 5 8 N/A
11:55 pm 23:55 Cloudy with Rain 56 13.1 52 10.9 87 87 SE 14 22 29.91 1013 7 11 N/A

Powered by AerisWeather